User: anonymous   Login
Location: Unspecified
(0.0000°N, 0.0000°E)
Time: 00:52:21
(UTC+00:00)
Language:

TBA - TO BE ASSIGNED - Orbit

View from above orbital plane
View from above orbital plane
View from above satellite
View from above satellite

Ground track
Ground track

The orbit is defined by the following mean orbital elements,

1 68356U          26145.63645139 +.00000000 +00000-0 +19555-4 0 00005
2 68356  54.9885 127.9593 0012338  78.4220 281.8163 14.73181034    06
Epoch (UTC): 25 May 2026 15:16:29
Eccentricity: 0.0012338
inclination: 54.9885°
perigee height: 642 km
apogee height: 660 km
right ascension of ascending node: 127.9593°
argument of perigee: 78.4220°
revolutions per day: 14.73181034
mean anomaly at epoch: 281.8163°

The dashed part of the orbit path shows where the satellite is in the earth's shadow,  

DLR